Regional Weather Roundup
Issued by NWS

Home | Current Version | Previous Version | Text Only | Print | Product List | Glossary On
Versions: 1 2 3 4 5 6 7 8 9 10 11 12 13 14 15 16 17 18 19 20 21 22 23 24 25 26 27 28
000
ASUS44 KLIX 191114
RWRLA
LOUISIANA WEATHER ROUNDUP
NATIONAL WEATHER SERVICE NEW ORLEANS LA
600 AM CDT SAT AUG 19 2017

NOTE: "FAIR" INDICATES FEW OR NO CLOUDS BELOW 12,000 FEET WITH NO
      SIGNIFICANT WEATHER AND/OR OBSTRUCTIONS TO VISIBILITY.
      SKY/WX - SKY CONDITION AND SIGNIFICANT WEATHER.
      TMP - AIR TEMPERATURE.    DP   - DEWPOINT TEMPERATURE.
      RH  - RELATIVE HUMIDITY.  PRES - PRESSURE.
      HX  - HEAT INDEX.         WCI  - WIND CHILL INDEX.

*  THESE STATIONS ARE NOT NWS OR FAA STATIONS AND ARE NOT UNDER
   NWS QUALITY CONTROL.

LAZ040-048-061>063-065-066-069-191200-
SOUTHEAST LOUISIANA

CITY           SKY/WX    TMP DP  RH WIND       PRES   REMARKS
N.O. INTL ARPT PTCLDY    79  78  97 W3        30.00R
N.O. LAKEFRONT PTCLDY    85  78  80 NW10      30.00R HX  96
N.O. DOWNTOWN* FAIR      83  77  82 VRB3      30.01R
RESERVE*       FAIR      79  77  92 CALM      30.01R FOG
SLIDELL        CLEAR     78  76  93 CALM      29.99R
BATON ROUGE    CLEAR     77  76  96 W5        30.00S
BOOTHVILLE     CLOUDY    81  71  71 W8        30.01R
BELLE CHASSE   NOT AVBL
BOGALUSA*      FAIR      75  72  89 CALM      30.01R
GALLIANO*      SUNNY     78  75  91 NW5       30.00S
NEW ROADS*     FAIR      76  76  98 CALM      30.01R
GONZALES*      FAIR      77  76  98 CALM      29.99S
HAMMOND*       CLEAR     77  73  88 CALM      30.00R
HOUMA*         PTCLDY    75  75 100 CALM      30.01
PORT FOURCHON* MOSUNNY   86  77  74 W9        30.00R HX  97

$$

LAZ041-044-053-054-191200-
SOUTHWEST LOUISIANA

CITY           SKY/WX    TMP DP  RH WIND       PRES   REMARKS
LAKE CHARLES   CLEAR     78  77  96 CALM      29.99S
LAFAYETTE      CLEAR     80  78  94 CALM      30.00S
PATTERSON      CLEAR     78  77  96 CALM      30.01
SALT POINT       N/A     85  76  74 W5        29.99R
NEW IBERIA     CLEAR     76  74  93 CALM      30.01R
CHENAULT AIRPK CLEAR     77  77  98 CALM      30.00S

$$

LAZ027-028-191200-
CENTRAL LOUISIANA

CITY           SKY/WX    TMP DP  RH WIND       PRES   REMARKS
FORT POLK      CLEAR     78  76  94 CALM      30.00R
ALEXANDRIA INT   N/A    N/A N/A N/A MISG      29.98R
ALEXANDRIA     CLEAR     77  77 100 W5        29.99R

$$

LAZ001-002-191200-
NORTHWEST LOUISIANA

CITY           SKY/WX    TMP DP  RH WIND       PRES   REMARKS
SHREVEPORT     PTCLDY    78  76  93 SW3       29.98S
BARKSDALE AFB  CLEAR     80  75  85 SW5       29.98R
DTN SHREVEPORT CLEAR     81  75  82 SW6       29.99R

$$

LAZ014-016-191200-
NORTHEAST LOUISIANA

CITY           SKY/WX    TMP DP  RH WIND       PRES   REMARKS
MONROE         PTCLDY    78  75  90 CALM      29.99S
TALLULAH       PTCLDY    76  75  97 CALM      29.99R FOG

$$





USA.gov is the U.S. government's official web portal to all federal, state and local government web resources and services.